Strona główna
METAR-TAF:

METAR-TAF

Lotnisko :

Faith Municipal Airport

Faith, Dakota Południowa, Stany Zjednoczone

Szerokość geograficzna: 45-01-55N, Długość geograficzna: 102-01-09W, wysokość: 787 m

Aktualna obserwacja pogody

Raport powstał 53 minut temu, godzina 17:56 UTC
Wiatr 25 kt od zachodnio-północny zachód w porywach dochodzący do 31 kt
Temperatura 7°C
Wilgotność 57%
Ciśnienie 1008 hPa

METAR: KD07 111756Z AUTO 30025G31KT 07/M01 A2978 RMK AO1 PK WND 30033/1657 SLP098 T00721011 10072 20017 50005 $

czas: 12:49 (18:49 UTC)


TAF: brakujący

Obserwacja i prognoza pogody dla ponad 4000 lotnisk (raport METAR i TAF).

Dostępne stacje oznaczono żółtymi i czerwonymi punktami na mapie.

Najedź kursorem aby zobaczyć nazwę stacji.

Kliknij aby zobaczyć obserwacje i prognozy pogody.

Aby zmienić mapę: kliknij na zielony przycisk z czarnym krzyżykiem, aby powiększyć; na zielony przycisk z myślnikiem, aby pomniejszyć; na zielone strzałki, aby przejść do map sąsiednich.


METAR-TAF: